Simultaneous Nadir Overpasses (SNOs) Predictions

Prediction of SNOs between FY3D and METOP-C Satellite Orbit:

Table of predicted SNOs for the next 14.0 days since TLE Epoch: 4/6/2024
Index Date (FY3D) Time (FY3D) Lat,Lon (FY3D) SZA (FY3D ) Date (METOP-C) Time (METOP-C) Lat,Lon (METOP-C) SZA (METOP-C ) Distance(km) Time Diff (sec)
1 04/17/2024 11:38:08 76.19, 2.83 65.38 04/17/2024 11:39:15 76.13, 5.49 65.30 71.29 67
2 04/17/2024 12:28:49 -76.04, 170.69 114.79 04/17/2024 12:29:59 -76.00, 172.40 114.84 46.36 70
3 04/17/2024 13:19:31 75.83, -21.29 64.99 04/17/2024 13:20:44 75.78, -21.01 64.93 9.76 73
4 04/17/2024 14:10:14 -75.77, 146.23 115.09 04/17/2024 14:11:26 -75.75, 146.23 115.12 2.48 72
5 04/17/2024 15:01:00 75.74, -46.38 64.87 04/17/2024 15:02:06 75.75, -46.42 64.88 1.69 66
6 04/17/2024 15:51:45 -75.78, 120.84 115.11 04/17/2024 15:52:47 -75.77, 120.96 115.12 3.43 62
7 04/17/2024 16:42:31 75.75, -71.77 64.85 04/17/2024 16:43:28 75.73, -71.84 64.83 2.72 57
8 04/17/2024 17:33:15 -75.73, 95.60 115.18 04/17/2024 17:34:09 -75.75, 95.54 115.17 2.01 54
9 04/17/2024 18:24:02 75.75, -97.16 64.83 04/17/2024 18:24:49 75.75, -97.10 64.83 1.72 47
10 04/17/2024 19:14:46 -75.74, 70.20 115.20 04/17/2024 19:15:31 -75.72, 70.13 115.22 2.62 45
11 04/17/2024 20:05:33 75.76,-122.56 64.81 04/17/2024 20:06:11 75.73,-122.52 64.78 3.40 38
12 04/17/2024 20:56:17 -75.74, 44.81 115.22 04/17/2024 20:56:52 -75.75, 44.86 115.22 1.56 35
13 04/17/2024 21:47:03 75.72,-147.80 64.75 04/17/2024 21:47:33 75.71,-147.93 64.74 3.87 30
14 04/17/2024 22:37:48 -75.75, 19.41 115.24 04/17/2024 22:38:14 -75.72, 19.45 115.27 3.04 26
15 04/17/2024 23:28:34 75.72,-173.19 64.73 04/17/2024 23:28:54 75.73,-173.20 64.73 0.74 20
16 04/18/2024 00:19:18 -75.71, -5.83 115.30 04/18/2024 00:19:36 -75.70, -5.97 115.31 3.95 18
17 04/18/2024 01:10:05 75.73, 161.41 64.71 04/18/2024 01:10:16 75.71, 161.39 64.69 2.56 11
18 04/18/2024 02:00:49 -75.71, -31.22 115.32 04/18/2024 02:00:57 -75.72, -31.23 115.31 1.08 8
19 04/18/2024 02:51:36 75.73, 136.02 64.69 04/18/2024 02:51:37 75.73, 136.12 64.68 2.88 1
20 04/18/2024 03:42:20 -75.72, -56.61 115.34 04/18/2024 03:42:19 -75.70, -56.65 115.36 2.33 1
21 04/18/2024 04:33:06 75.69, 110.78 64.62 04/18/2024 04:32:59 75.71, 110.71 64.64 2.43 7
22 04/18/2024 05:23:51 -75.72, -82.01 115.36 04/18/2024 05:23:40 -75.72, -81.91 115.36 2.61 11
23 04/18/2024 06:14:37 75.70, 85.38 64.60 04/18/2024 06:14:21 75.68, 85.29 64.59 3.05 16
24 04/18/2024 07:05:21 -75.68,-107.25 115.43 04/18/2024 07:05:02 -75.70,-107.33 115.41 2.80 19
25 04/18/2024 07:56:08 75.70, 59.99 64.58 04/18/2024 07:55:42 75.71, 60.03 64.59 1.06 26
26 04/18/2024 08:46:52 -75.69,-132.64 115.45 04/18/2024 08:46:24 -75.67,-132.74 115.46 3.09 28
27 04/18/2024 09:37:39 75.71, 34.59 64.57 04/18/2024 09:37:04 75.68, 34.61 64.54 2.96 35
28 04/18/2024 10:28:23 -75.69,-158.04 115.47 04/18/2024 10:27:45 -75.70,-158.01 115.46 0.96 38
29 04/18/2024 11:19:10 75.71, 9.20 64.55 04/18/2024 11:18:25 75.71, 9.35 64.54 4.08 45
30 04/18/2024 12:09:54 -75.70, 176.57 115.49 04/18/2024 12:09:07 -75.67, 176.58 115.51 2.61 47
31 04/18/2024 13:00:40 75.67, -16.04 64.48 04/18/2024 12:59:47 75.68, -16.07 64.49 1.27 53
32 04/18/2024 13:51:25 -75.70, 151.17 115.51 04/18/2024 13:50:28 -75.70, 151.31 115.51 3.74 57
33 04/18/2024 14:42:11 75.68, -41.44 64.46 04/18/2024 14:41:09 75.66, -41.48 64.44 2.59 62
34 04/18/2024 15:32:55 -75.66, 125.93 115.57 04/18/2024 15:31:50 -75.67, 125.89 115.56 1.69 65
35 04/18/2024 16:23:42 75.68, -66.83 64.44 04/18/2024 16:22:30 75.68, -66.75 64.44 2.18 72
36 04/18/2024 17:14:26 -75.67, 100.54 115.59 04/18/2024 17:13:12 -75.65, 100.48 115.61 2.50 74
37 04/18/2024 18:05:08 75.46, -91.47 64.19 04/18/2024 18:03:57 75.42, -92.90 64.16 40.02 71
38 04/18/2024 18:55:50 -75.35, 76.18 115.94 04/18/2024 18:54:40 -75.34, 74.20 115.93 55.93 70



Historial Predications of SNOs between FY3D and METOP-C
